• In Sweden
  • List of Countries
  • For 7 days
  • Water Temperature
  • Satellite Maps
  • Weather Map
  • Weather Widgets
  • user-avatar
    Login

    Hourly Weather Ignashkino

    Today, 26 May, Saturday

    Time Temperature Precipitation Wind Pressure Humidity
    00:00 +2°C° 0 mm 2 mps 752 mmHg 83%
    01:00 +2°C° 0 mm 2 mps 752 mmHg 82%
    02:00 +1°C° 0 mm 2 mps 752 mmHg 82%
    03:00 -1°C° 0 mm 2 mps 753 mmHg 81%
    04:00 +1°C° 0 mm 2 mps 753 mmHg 81%
    05:00 +3°C° 0 mm 1 mps 753 mmHg 80%
    06:00 +4°C° 0 mm 1 mps 753 mmHg 79%
    07:00 +5°C° 0 mm 1 mps 753 mmHg 73%
    08:00 +7°C° 0 mm 1 mps 754 mmHg 66%
    09:00 +9°C° 0 mm 1 mps 754 mmHg 59%
    10:00 +9°C° 0 mm 2 mps 754 mmHg 53%
    11:00 +9°C° 0 mm 2 mps 753 mmHg 47%
    12:00 +10°C° 0 mm 2 mps 753 mmHg 41%
    13:00 +10°C° 0 mm 2 mps 753 mmHg 40%
    14:00 +10°C° 0 mm 2 mps 752 mmHg 38%
    15:00 +12°C° 0 mm 2 mps 752 mmHg 37%
    16:00 +10°C° 0 mm 2 mps 752 mmHg 39%
    17:00 +10°C° 0 mm 2 mps 752 mmHg 40%
    18:00 +9°C° 0 mm 2 mps 752 mmHg 41%
    19:00 +8°C° 0 mm 2 mps 752 mmHg 46%
    20:00 +8°C° 0 mm 1 mps 752 mmHg 50%
    21:00 +7°C° 0 mm 1 mps 752 mmHg 54%
    22:00 +5°C° 0.1 mm 2 mps 752 mmHg 55%
    23:00 +5°C° 0.1 mm 2 mps 751 mmHg 55%

    Tomorrow, 27 May, Sunday

    Time Temperature Precipitation Wind Pressure Humidity
    00:00 +4°C° 0.1 mm 2 mps 751 mmHg 55%
    01:00 +4°C° 0 mm 2 mps 751 mmHg 57%
    02:00 +4°C° 0 mm 2 mps 751 mmHg 58%
    03:00 +2°C° 0 mm 3 mps 751 mmHg 59%
    04:00 +2°C° 0 mm 3 mps 751 mmHg 59%
    05:00 +2°C° 0 mm 3 mps 752 mmHg 59%
    06:00 +2°C° 0 mm 3 mps 752 mmHg 59%
    07:00 +4°C° 0 mm 3 mps 752 mmHg 54%
    08:00 +5°C° 0 mm 3 mps 752 mmHg 48%
    09:00 +7°C° 0 mm 3 mps 752 mmHg 43%
    10:00 +8°C° 0 mm 3 mps 752 mmHg 39%
    11:00 +9°C° 0 mm 3 mps 752 mmHg 35%
    12:00 +10°C° 0 mm 3 mps 752 mmHg 31%
    13:00 +11°C° 0 mm 3 mps 752 mmHg 29%
    14:00 +12°C° 0 mm 2 mps 752 mmHg 28%
    15:00 +13°C° 0 mm 2 mps 752 mmHg 26%
    16:00 +13°C° 0 mm 2 mps 752 mmHg 26%
    17:00 +12°C° 0 mm 2 mps 752 mmHg 26%
    18:00 +12°C° 0 mm 2 mps 752 mmHg 26%
    19:00 +10°C° 0 mm 1 mps 752 mmHg 33%
    20:00 +8°C° 0 mm 1 mps 752 mmHg 39%
    21:00 +6°C° 0 mm 1 mps 752 mmHg 46%
    22:00 +5°C° 0 mm 1 mps 752 mmHg 47%
    23:00 +4°C° 0 mm 1 mps 752 mmHg 49%

    Day after tomorrow, 28 May, Monday

    Time Temperature Precipitation Wind Pressure Humidity
    00:00 +4°C° 0 mm 1 mps 752 mmHg 50%
    01:00 +3°C° 0 mm 1 mps 752 mmHg 52%
    02:00 +3°C° 0 mm 1 mps 751 mmHg 54%
    03:00 +2°C° 0 mm 1 mps 751 mmHg 56%
    04:00 +3°C° 0 mm 2 mps 751 mmHg 56%
    05:00 +4°C° 0 mm 2 mps 750 mmHg 55%
    06:00 +4°C° 0 mm 3 mps 749 mmHg 55%
    07:00 +5°C° 0 mm 3 mps 748 mmHg 54%
    08:00 +6°C° 0 mm 4 mps 748 mmHg 53%
    09:00 +8°C° 0 mm 5 mps 747 mmHg 53%
    10:00 +8°C° 0.1 mm 5 mps 746 mmHg 55%
    11:00 +9°C° 0.1 mm 5 mps 745 mmHg 57%
    12:00 +11°C° 0.1 mm 4 mps 744 mmHg 59%
    13:00 +10°C° 0.5 mm 4 mps 744 mmHg 66%
    14:00 +10°C° 0.5 mm 4 mps 743 mmHg 73%
    15:00 +8°C° 0.5 mm 4 mps 742 mmHg 80%
    16:00 +9°C° 0.6 mm 3 mps 742 mmHg 83%
    17:00 +9°C° 0.6 mm 3 mps 741 mmHg 86%
    18:00 +9°C° 0.6 mm 2 mps 741 mmHg 89%
    19:00 +8°C° 0.3 mm 2 mps 740 mmHg 91%
    20:00 +8°C° 0.3 mm 2 mps 740 mmHg 94%
    21:00 +9°C° 0.3 mm 1 mps 740 mmHg 96%
    22:00 +8°C° 0.7 mm 1 mps 739 mmHg 97%
    23:00 +8°C° 0.7 mm 1 mps 739 mmHg 97%

    29 May, Tuesday

    Time Temperature Precipitation Wind Pressure Humidity
    00:00 +8°C° 0.7 mm 1 mps 738 mmHg 98%
    01:00 +8°C° 1 mm 2 mps 738 mmHg 97%
    02:00 +8°C° 1 mm 2 mps 737 mmHg 97%
    03:00 +8°C° 1 mm 3 mps 737 mmHg 96%
    04:00 +7°C° 1 mm 4 mps 737 mmHg 95%
    05:00 +6°C° 1 mm 5 mps 738 mmHg 94%
    06:00 +5°C° 1 mm 6 mps 738 mmHg 92%
    07:00 +5°C° 0.1 mm 6 mps 739 mmHg 88%
    08:00 +7°C° 0.1 mm 6 mps 740 mmHg 84%
    09:00 +8°C° 0.1 mm 6 mps 741 mmHg 79%
    10:00 +9°C° 0.1 mm 6 mps 741 mmHg 78%
    11:00 +10°C° 0.1 mm 5 mps 741 mmHg 77%
    12:00 +12°C° 0.1 mm 5 mps 742 mmHg 75%
    13:00 +10°C° 0.1 mm 6 mps 742 mmHg 72%
    14:00 +9°C° 0.1 mm 7 mps 742 mmHg 70%
    15:00 +7°C° 0.1 mm 8 mps 743 mmHg 67%
    16:00 +9°C° 0 mm 8 mps 743 mmHg 62%
    17:00 +10°C° 0 mm 7 mps 743 mmHg 56%
    18:00 +11°C° 0 mm 7 mps 744 mmHg 51%
    19:00 +10°C° 0 mm 6 mps 744 mmHg 54%
    20:00 +9°C° 0 mm 5 mps 744 mmHg 57%
    21:00 +10°C° 0 mm 4 mps 744 mmHg 60%
    22:00 +8°C° 0 mm 4 mps 745 mmHg 63%
    23:00 +7°C° 0 mm 4 mps 745 mmHg 66%

    30 May, Wednesday

    Time Temperature Precipitation Wind Pressure Humidity
    00:00 +6°C° 0 mm 4 mps 745 mmHg 70%
    01:00 +6°C° 0 mm 4 mps 745 mmHg 74%
    02:00 +5°C° 0 mm 3 mps 745 mmHg 78%
    03:00 +4°C° 0 mm 3 mps 745 mmHg 82%
    04:00 +6°C° 0 mm 2 mps 745 mmHg 81%
    05:00 +6°C° 0 mm 2 mps 745 mmHg 79%
    06:00 +7°C° 0 mm 2 mps 745 mmHg 77%
    07:00 +8°C° 0 mm 2 mps 745 mmHg 71%
    08:00 +11°C° 0 mm 1 mps 745 mmHg 66%
    09:00 +12°C° 0 mm 1 mps 744 mmHg 61%
    10:00 +13°C° 0.1 mm 2 mps 744 mmHg 60%
    11:00 +14°C° 0.1 mm 2 mps 743 mmHg 60%
    12:00 +16°C° 0.1 mm 2 mps 742 mmHg 59%
    13:00 +16°C° 0.5 mm 2 mps 742 mmHg 62%
    14:00 +17°C° 0.5 mm 2 mps 741 mmHg 64%
    15:00 +17°C° 0.5 mm 2 mps 741 mmHg 67%
    16:00 +16°C° 1 mm 3 mps 741 mmHg 71%
    17:00 +14°C° 1 mm 3 mps 741 mmHg 76%
    18:00 +12°C° 1 mm 3 mps 741 mmHg 80%
    19:00 +11°C° 0 mm 3 mps 741 mmHg 85%
    20:00 +10°C° 0 mm 2 mps 741 mmHg 89%
    21:00 +8°C° 0 mm 2 mps 742 mmHg 93%
    22:00 +7°C° 0 mm 2 mps 742 mmHg 94%
    23:00 +7°C° 0 mm 2 mps 742 mmHg 95%

    31 May, Thursday

    Time Temperature Precipitation Wind Pressure Humidity
    00:00 +6°C° 0 mm 2 mps 742 mmHg 96%
    01:00 +6°C° 0.2 mm 2 mps 743 mmHg 96%
    02:00 +5°C° 0.2 mm 3 mps 743 mmHg 95%
    03:00 +4°C° 0.2 mm 3 mps 743 mmHg 94%
    04:00 +5°C° 0.2 mm 3 mps 744 mmHg 92%
    05:00 +5°C° 0.2 mm 4 mps 745 mmHg 89%
    06:00 +5°C° 0.2 mm 4 mps 746 mmHg 87%
    07:00 +6°C° 0 mm 4 mps 747 mmHg 77%
    08:00 +7°C° 0 mm 4 mps 747 mmHg 67%
    09:00 +9°C° 0 mm 5 mps 748 mmHg 57%
    10:00 +10°C° 0 mm 5 mps 749 mmHg 52%
    11:00 +12°C° 0 mm 5 mps 749 mmHg 46%
    12:00 +13°C° 0 mm 5 mps 750 mmHg 41%
    13:00 +13°C° 0.2 mm 5 mps 750 mmHg 42%
    14:00 +14°C° 0.2 mm 5 mps 750 mmHg 43%
    15:00 +14°C° 0.2 mm 5 mps 751 mmHg 44%
    16:00 +13°C° 0.1 mm 5 mps 751 mmHg 44%
    17:00 +13°C° 0.1 mm 5 mps 752 mmHg 44%
    18:00 +13°C° 0.1 mm 5 mps 752 mmHg 45%
    19:00 +11°C° 0 mm 4 mps 753 mmHg 49%
    20:00 +10°C° 0 mm 3 mps 753 mmHg 53%
    21:00 +9°C° 0 mm 2 mps 753 mmHg 58%
    22:00 +9°C° 0 mm 3 mps 753 mmHg 60%
    23:00 +8°C° 0 mm 3 mps 753 mmHg 62%
    Show more